Volver al catálogo

BEIDOU 3M25

ActivoNavegaciónMEO
NORAD 61186·PAYLOAD·🇨🇳 China

Lanzado Sep 19, 2024 desde Xichang Satellite Launch Center

Loading…

Próximos Pases (próximas 24 horas)

TLE

ActualizadoSource: Space-Track

Época: Sep 14, 2026, 14:15 UTC

1 61186U 24168B   26257.59425442 -.00000061  00000-0  00000-0 0  9998
2 61186  54.3905 299.1275 0004557 289.0918  71.6668  1.86230280 13450

Sigue BEIDOU 3M25 en tiempo real con AllMySat

Download on the App Store